| time (UTC) | temp C | wind direction | speed KPH | gust KPH | rain 1hr cm | rain 24hr cm | rain mn cm | humidity % | barometer mb |
| 20260506125048 | 21 | 119 | 6.4 | 12.9 | 0.00 | 0.00 | 0.00 | 39 | 1009.3 |
| 20260506124033 | 21 | 151 | 8.0 | 14.5 | 0.00 | 0.00 | 0.00 | 40 | 1009.5 |
| 20260506123023 | 21 | 130 | 6.4 | 12.9 | 0.00 | 0.00 | 0.00 | 41 | 1009.5 |
| 20260506122024 | 21 | 149 | 11.3 | 17.7 | 0.00 | 0.00 | 0.00 | 40 | 1009.6 |
| 20260506121032 | 21 | 292 | 3.2 | 9.7 | 0.00 | 0.00 | 0.00 | 38 | 1009.8 |
| 20260506120032 | 20 | 142 | 8.0 | 14.5 | 0.00 | 0.00 | 0.00 | 41 | 1009.9 |
| 20260506115016 | 20 | 211 | 11.3 | 20.9 | 0.00 | 0.00 | 0.00 | 41 | 1010.5 |
| 20260506114053 | 21 | 141 | 12.9 | 27.4 | 0.00 | 0.00 | 0.00 | 41 | 1010.0 |
| 20260506113037 | 21 | 144 | 11.3 | 22.5 | 0.00 | 0.00 | 0.00 | 40 | 1009.9 |
| 20260506112033 | 20 | 147 | 11.3 | 16.1 | 0.00 | 0.00 | 0.00 | 41 | 1010.3 |
| 20260506111032 | 20 | 131 | 11.3 | 20.9 | 0.00 | 0.00 | 0.00 | 41 | 1010.2 |
| 20260506110032 | 20 | 148 | 11.3 | 12.9 | 0.00 | 0.00 | 0.00 | 42 | 1010.4 |
| 20260506105032 | 20 | 146 | 14.5 | 22.5 | 0.00 | 0.00 | 0.00 | 42 | 1010.5 |
| 20260506104041 | 19 | 155 | 14.5 | 20.9 | 0.00 | 0.00 | 0.00 | 43 | 1010.7 |
| 20260506103016 | 19 | 150 | 12.9 | 20.9 | 0.00 | 0.00 | 0.00 | 44 | 1010.8 |
| 20260506102034 | 19 | 158 | 11.3 | 20.9 | 0.00 | 0.00 | 0.00 | 44 | 1011.0 |
| 20260506101053 | 19 | 147 | 14.5 | 20.9 | 0.00 | 0.00 | 0.00 | 46 | 1011.3 |
| 20260506100041 | 18 | 147 | 11.3 | 17.7 | 0.00 | 0.00 | 0.00 | 46 | 1011.6 |
| 20260506095016 | 18 | 158 | 12.9 | 20.9 | 0.00 | 0.00 | 0.00 | 49 | 1011.7 |
| 20260506094032 | 18 | 168 | 12.9 | 20.9 | 0.00 | 0.00 | 0.00 | 49 | 1012.0 |
| 20260506093029 | 16 | 153 | 16.1 | 30.6 | 0.00 | 0.00 | 0.00 | 58 | 1012.0 |
| 20260506092027 | 16 | 143 | 4.8 | 14.5 | 0.00 | 0.00 | 0.00 | 63 | 1012.1 |
| 20260506091032 | 16 | 163 | 4.8 | 6.4 | 0.00 | 0.00 | 0.00 | 63 | 1012.2 |
| 20260506090027 | 16 | 129 | 1.6 | 4.8 | 0.00 | 0.00 | 0.00 | 63 | 1012.1 |
| 20260506085029 | 16 | 358 | 1.6 | 3.2 | 0.00 | 0.00 | 0.00 | 62 | 1011.8 |
| 20260506084028 | 15 | 32 | 3.2 | 6.4 | 0.00 | 0.00 | 0.00 | 64 | 1011.7 |
| 20260506083032 | 16 | 357 | 3.2 | 6.4 | 0.00 | 0.00 | 0.00 | 61 | 1011.7 |
| 20260506082029 | 16 | 72 | 0.0 | 3.2 | 0.00 | 0.00 | 0.00 | 60 | 1011.9 |
| 20260506081029 | 15 | 56 | 3.2 | 4.8 | 0.00 | 0.00 | 0.00 | 62 | 1011.9 |
| 20260506073033 | 12 | 51 | 1.6 | 3.2 | 0.00 | 0.00 | 0.00 | 68 | 1012.6 |
| 20260506072027 | 12 | 350 | 3.2 | 9.7 | 0.00 | 0.00 | 0.00 | 72 | 1012.9 |
| 20260506071029 | 12 | 7 | 3.2 | 6.4 | 0.00 | 0.00 | 0.00 | 72 | 1013.1 |
| 20260506062041 | 11 | 2 | 3.2 | 4.8 | 0.00 | 0.00 | 0.00 | 77 | 1013.3 |
| 20260506061016 | 10 | 56 | 0.0 | 1.6 | 0.00 | 0.00 | 0.00 | 78 | 1013.4 |
| 20260506051032 | 8 | 341 | 1.6 | 1.6 | 0.00 | 0.00 | 0.00 | 85 | 1014.0 |
| 20260506045029 | 8 | 22 | 1.6 | 1.6 | 0.00 | 0.00 | 0.00 | 85 | 1014.1 |
| 20260506044024 | 8 | 316 | 1.6 | 3.2 | 0.00 | 0.00 | 0.00 | 84 | 1014.3 |
| 20260506043016 | 8 | 0.0 | 0.0 | 0.00 | 0.00 | 0.00 | 84 | 1014.3 | |
| 20260506042021 | 8 | 314 | 0.0 | 3.2 | 0.00 | 0.00 | 0.00 | 84 | 1014.3 |
| 20260506041029 | 8 | 266 | 1.6 | 4.8 | 0.00 | 0.00 | 0.00 | 84 | 1014.3 |
| 20260506040024 | 8 | 16 | 0.0 | 3.2 | 0.00 | 0.00 | 0.00 | 84 | 1014.2 |
| 20260506035029 | 8 | 42 | 0.0 | 1.6 | 0.00 | 0.00 | 0.00 | 83 | 1014.2 |
| 20260506034029 | 7 | 343 | 0.0 | 1.6 | 0.00 | 0.00 | 0.00 | 85 | 1014.2 |
| 20260506033029 | 8 | 0 | 1.6 | 3.2 | 0.00 | 0.00 | 0.00 | 84 | 1014.2 |
| 20260506032017 | 8 | 336 | 1.6 | 3.2 | 0.00 | 0.00 | 0.00 | 82 | 1014.1 |
| 20260506031021 | 8 | 314 | 3.2 | 6.4 | 0.00 | 0.00 | 0.00 | 83 | 1014.3 |
| 20260506030021 | 9 | 32 | 1.6 | 4.8 | 0.00 | 0.00 | 0.00 | 80 | 1014.6 |
| 20260506025028 | 8 | 306 | 3.2 | 4.8 | 0.00 | 0.00 | 0.00 | 82 | 1014.8 |
| 20260506024032 | 8 | 139 | 0.0 | 3.2 | 0.00 | 0.00 | 0.00 | 81 | 1015.2 |
| 20260506023036 | 8 | 0.0 | 0.0 | 0.00 | 0.00 | 0.00 | 81 | 1015.1 | |
| 20260506022047 | 8 | 18 | 0.0 | 1.6 | 0.00 | 0.00 | 0.00 | 81 | 1015.1 |
| 20260506021029 | 8 | 311 | 1.6 | 3.2 | 0.00 | 0.00 | 0.00 | 81 | 1015.2 |
| 20260506020023 | 8 | 278 | 1.6 | 1.6 | 0.00 | 0.00 | 0.00 | 80 | 1015.3 |
| 20260506015033 | 8 | 298 | 1.6 | 1.6 | 0.00 | 0.00 | 0.00 | 80 | 1015.2 |
| 20260506014027 | 10 | 58 | 1.6 | 3.2 | 0.00 | 0.00 | 0.00 | 78 | 1015.0 |
| 20260506013030 | 9 | 249 | 3.2 | 4.8 | 0.00 | 0.00 | 0.00 | 79 | 1015.1 |
| 20260506012024 | 8 | 32 | 0.0 | 1.6 | 0.00 | 0.00 | 0.00 | 80 | 1015.1 |
| 20260506011029 | 9 | 263 | 1.6 | 3.2 | 0.00 | 0.00 | 0.00 | 79 | 1015.2 |
| 20260506010043 | 8 | 289 | 1.6 | 3.2 | 0.00 | 0.00 | 0.00 | 80 | 1015.3 |
| 20260506005032 | 9 | 0.0 | 0.0 | 0.00 | 0.00 | 0.00 | 78 | 1015.2 | |
| 20260506004027 | 10 | 237 | 0.0 | 1.6 | 0.00 | 0.00 | 0.00 | 76 | 1015.1 |
| 20260506003033 | 9 | 217 | 1.6 | 3.2 | 0.00 | 0.00 | 0.00 | 77 | 1015.0 |
| 20260506002028 | 10 | 103 | 1.6 | 3.2 | 0.00 | 0.00 | 0.00 | 76 | 1015.1 |
| 20260506001109 | 10 | 293 | 0.0 | 1.6 | 0.00 | 0.00 | 0.00 | 74 | 1015.0 |
| 20260506000023 | 10 | 315 | 1.6 | 3.2 | 0.00 | 0.00 | 0.00 | 74 | 1015.1 |
| 20260505235032 | 10 | 0.0 | 0.0 | 0.00 | 0.00 | 0.00 | 73 | 1015.1 | |
| 20260505234027 | 10 | 267 | 1.6 | 3.2 | 0.00 | 0.00 | 0.00 | 73 | 1015.1 |
| 20260505233029 | 11 | 312 | 0.0 | 3.2 | 0.00 | 0.00 | 0.00 | 69 | 1015.2 |
| 20260505232103 | 11 | 303 | 3.2 | 3.2 | 0.00 | 0.00 | 0.00 | 71 | 1015.1 |
| 20260505231052 | 12 | 349 | 1.6 | 3.2 | 0.00 | 0.00 | 0.00 | 66 | 1015.3 |
| 20260505230021 | 11 | 319 | 3.2 | 6.4 | 0.00 | 0.00 | 0.00 | 66 | 1015.1 |
| 20260505225030 | 11 | 339 | 3.2 | 4.8 | 0.00 | 0.00 | 0.00 | 67 | 1015.1 |
| 20260505224017 | 12 | 325 | 1.6 | 3.2 | 0.00 | 0.00 | 0.00 | 62 | 1015.0 |
| 20260505223019 | 12 | 321 | 3.2 | 4.8 | 0.00 | 0.00 | 0.00 | 63 | 1015.0 |
| 20260505222021 | 12 | 314 | 3.2 | 3.2 | 0.00 | 0.00 | 0.00 | 63 | 1014.7 |
| 20260505221017 | 12 | 323 | 1.6 | 3.2 | 0.00 | 0.00 | 0.00 | 64 | 1014.8 |
| 20260505220024 | 12 | 318 | 1.6 | 3.2 | 0.00 | 0.00 | 0.00 | 64 | 1014.6 |
| 20260505215032 | 12 | 335 | 3.2 | 3.2 | 0.00 | 0.00 | 0.00 | 63 | 1014.7 |
| 20260505214027 | 13 | 338 | 4.8 | 6.4 | 0.00 | 0.00 | 0.00 | 62 | 1014.7 |
| 20260505213050 | 13 | 1 | 3.2 | 6.4 | 0.00 | 0.00 | 0.00 | 61 | 1014.6 |
| 20260505212024 | 13 | 329 | 3.2 | 4.8 | 0.00 | 0.00 | 0.00 | 59 | 1014.5 |
| 20260505211028 | 14 | 318 | 4.8 | 6.4 | 0.00 | 0.00 | 0.00 | 57 | 1014.2 |
| 20260505210033 | 14 | 308 | 4.8 | 6.4 | 0.00 | 0.00 | 0.00 | 56 | 1014.2 |
| 20260505205032 | 14 | 311 | 6.4 | 9.7 | 0.00 | 0.00 | 0.00 | 56 | 1014.0 |
| 20260505204020 | 15 | 330 | 3.2 | 9.7 | 0.00 | 0.00 | 0.00 | 56 | 1013.8 |
| 20260505203029 | 15 | 141 | 3.2 | 6.4 | 0.00 | 0.00 | 0.00 | 55 | 1013.8 |
| 20260505202017 | 15 | 123 | 3.2 | 6.4 | 0.00 | 0.00 | 0.00 | 55 | 1013.8 |
| 20260505201030 | 15 | 155 | 3.2 | 6.4 | 0.00 | 0.00 | 0.00 | 55 | 1013.7 |
| 20260505200024 | 15 | 104 | 1.6 | 3.2 | 0.00 | 0.00 | 0.00 | 55 | 1013.5 |
| 20260505195021 | 15 | 179 | 3.2 | 6.4 | 0.00 | 0.00 | 0.00 | 54 | 1013.5 |
| 20260505194021 | 16 | 171 | 4.8 | 11.3 | 0.00 | 0.00 | 0.00 | 52 | 1013.4 |
| 20260505193016 | 16 | 150 | 4.8 | 11.3 | 0.00 | 0.00 | 0.00 | 51 | 1013.3 |
| 20260505192024 | 16 | 164 | 4.8 | 9.7 | 0.00 | 0.00 | 0.00 | 52 | 1013.2 |
| 20260505191032 | 16 | 174 | 3.2 | 6.4 | 0.00 | 0.00 | 0.00 | 52 | 1013.0 |
| 20260505190027 | 16 | 146 | 4.8 | 11.3 | 0.00 | 0.00 | 0.00 | 52 | 1013.0 |
| 20260505185030 | 16 | 156 | 6.4 | 12.9 | 0.00 | 0.00 | 0.00 | 52 | 1012.8 |
| 20260505184044 | 17 | 143 | 6.4 | 11.3 | 0.00 | 0.00 | 0.00 | 51 | 1012.7 |
| 20260505183048 | 17 | 160 | 6.4 | 12.9 | 0.00 | 0.00 | 0.00 | 47 | 1012.6 |
| 20260505182033 | 18 | 168 | 3.2 | 9.7 | 0.00 | 0.00 | 0.00 | 46 | 1012.6 |
| 20260505181036 | 18 | 161 | 9.7 | 16.1 | 0.00 | 0.00 | 0.00 | 44 | 1012.4 |
| 20260505180020 | 19 | 164 | 11.3 | 22.5 | 0.00 | 0.00 | 0.00 | 43 | 1012.5 |
| 20260505175109 | 18 | 160 | 9.7 | 17.7 | 0.00 | 0.00 | 0.00 | 44 | 1012.3 |
| 20260505174021 | 19 | 165 | 11.3 | 24.1 | 0.00 | 0.00 | 0.00 | 43 | 1012.3 |
| 20260505173030 | 19 | 163 | 14.5 | 29.0 | 0.00 | 0.00 | 0.00 | 42 | 1012.3 |
| 20260505172038 | 19 | 154 | 12.9 | 24.1 | 0.00 | 0.00 | 0.00 | 42 | 1012.3 |
| 20260505171019 | 19 | 171 | 11.3 | 22.5 | 0.00 | 0.00 | 0.00 | 42 | 1012.3 |
| 20260505170021 | 20 | 162 | 14.5 | 29.0 | 0.00 | 0.00 | 0.00 | 41 | 1012.4 |
| 20260505165056 | 20 | 155 | 12.9 | 29.0 | 0.00 | 0.00 | 0.00 | 40 | 1012.3 |
| 20260505164113 | 20 | 160 | 12.9 | 24.1 | 0.00 | 0.00 | 0.00 | 40 | 1012.5 |
| 20260505163017 | 20 | 154 | 16.1 | 37.0 | 0.00 | 0.00 | 0.00 | 40 | 1012.6 |
| 20260505162053 | 20 | 162 | 12.9 | 22.5 | 0.00 | 0.00 | 0.00 | 40 | 1012.5 |
| 20260505161017 | 20 | 168 | 9.7 | 22.5 | 0.00 | 0.00 | 0.00 | 40 | 1012.4 |
| 20260505153019 | 21 | 194 | 12.9 | 25.7 | 0.00 | 0.00 | 0.00 | 39 | 1012.5 |
| 20260505152101 | 21 | 172 | 12.9 | 25.7 | 0.00 | 0.00 | 0.00 | 40 | 1012.5 |
| 20260505151016 | 21 | 164 | 11.3 | 24.1 | 0.00 | 0.00 | 0.00 | 40 | 1012.5 |